Weather History for Evansville, IN

Change the Weather History Date:

Saturday, June 28, 2014

  Actual Average Record
Temperature  
Mean Temperature 80 °F 78 °F  
Max Temperature 88 °F 88 °F 107 °F (2012)
Min Temperature 72 °F 67 °F 55 °F (1950)
Degree Days  
Heating Degree Days 0 0  
Month to date heating degree days 0 4  
Since 1 June heating degree days 0 4  
Since 1 July heating degree days 4980 4545  
Cooling Degree Days 15 13  
Month to date cooling degree days 330 273  
Year to date cooling degree days 541 408  
Since 1 June cooling degree days 330 273  
Growing Degree Days 30 (Base 50)    
Moisture  
Dew Point 69 °F    
Average Humidity 72    
Maximum Humidity 93    
Minimum Humidity 50    
Precipitation  
Precipitation T in 0.11 in 2.27 in (1977)
Month to date precipitation 3.87 3.56  
Year to date precipitation 25.36 23.80  
Snow  
Snow 0.00 in 0.00 in - ()
Month to date snowfall 0.0 0.0  
Since 1 June snowfall 0.0 0.0  
Since 1 July snowfall 12.6 11.8  
Snow Depth 0.00 in    
Sea Level Pressure  
Sea Level Pressure 30.07 in    
Wind  
Wind Speed 8 mph (SSW)    
Max Wind Speed 20 mph    
Max Gust Speed 24 mph    
Visibility 10 miles    
Events      
T = Trace of Precipitation, MM = Missing Value Source: NWS Daily Summary

Daily Weather History Graph

Daily Weather History Graph

Search for Another Location

Airport:

Trip Planner

Search our weather history database for the weather conditions in past years. The results will help you decide how hot, cold, wet, or windy it might be!

Date:

Astronomy

Jun. 28, 2014 Rise Set
Actual Time 5:29 AM CDT 8:16 PM CDT
Civil Twilight 4:58 AM CDT 8:48 PM CDT
Nautical Twilight 4:18 AM CDT 9:27 PM CDT
Astronomical Twilight 3:34 AM CDT 10:12 PM CDT
Moon 6:51 AM CDT (6/28) 9:03 PM CDT (6/28)
Length of Visible Light 15h 49m
Length of Day
14h 47m
New Moon, 2% of the Moon is Illuminated
Jun 28
New Moon
Jul 5
First Quarter
Jul 12
Full
Jul 18
Last Quarter
Jul 26
New

Hourly Weather History & Observations

Time (CDT) Temp. Heat Index Dew Point Humidity Pressure Visibility Wind Dir Wind Speed Gust Speed Precip Events Conditions
12:54 AM 75.9 °F - 69.1 °F 79% 30.04 in 10.0 mi South 5.8 mph - N/A   Clear
1:54 AM 75.0 °F - 70.0 °F 84% 30.04 in 10.0 mi SSW 5.8 mph - N/A   Clear
2:54 AM 73.9 °F - 70.0 °F 87% 30.02 in 10.0 mi Calm Calm - N/A   Clear
3:54 AM 73.0 °F - 70.0 °F 90% 30.03 in 10.0 mi Calm Calm - N/A   Clear
4:54 AM 72.0 °F - 69.1 °F 91% 30.04 in 10.0 mi Calm Calm - N/A   Clear
5:54 AM 72.0 °F - 69.1 °F 91% 30.05 in 10.0 mi Calm Calm - N/A   Clear
6:54 AM 73.0 °F - 70.0 °F 90% 30.07 in 10.0 mi SSW 6.9 mph - N/A   Clear
7:49 AM 75.2 °F - 69.8 °F 83% 30.11 in 10.0 mi SW 11.5 mph - N/A   Partly Cloudy
7:54 AM 75.0 °F - 70.0 °F 84% 30.10 in 10.0 mi SSW 12.7 mph - N/A   Partly Cloudy
8:54 AM 75.9 °F - 70.0 °F 82% 30.11 in 10.0 mi SSW 6.9 mph - N/A   Scattered Clouds
9:16 AM 77.0 °F - 70.0 °F 79% 30.12 in 10.0 mi SSW 8.1 mph - N/A   Mostly Cloudy
9:41 AM 78.1 °F - 70.0 °F 76% 30.12 in 10.0 mi SSW 5.8 mph - N/A   Overcast
9:54 AM 78.1 °F - 69.1 °F 74% 30.10 in 10.0 mi Variable 5.8 mph - N/A   Mostly Cloudy
10:01 AM 79.0 °F - 70.0 °F 74% 30.11 in 10.0 mi SSW 6.9 mph - N/A   Overcast
10:12 AM 79.0 °F - 70.0 °F 74% 30.11 in 10.0 mi SSW 8.1 mph - N/A   Overcast
10:36 AM 79.0 °F - 70.0 °F 74% 30.11 in 10.0 mi SSW 5.8 mph - 0.00 in   Mostly Cloudy
10:54 AM 81.0 °F 84.4 °F 70.0 °F 69% 30.10 in 10.0 mi SSW 8.1 mph - 0.00 in   Mostly Cloudy
11:54 AM 82.9 °F 86.5 °F 69.1 °F 63% 30.09 in 10.0 mi SSW 12.7 mph - N/A   Partly Cloudy
12:54 PM 84.0 °F 87.0 °F 68.0 °F 58% 30.08 in 10.0 mi South 11.5 mph - N/A   Mostly Cloudy
1:54 PM 84.9 °F 88.8 °F 69.1 °F 59% 30.07 in 10.0 mi South 10.4 mph - N/A   Mostly Cloudy
2:54 PM 87.1 °F 89.9 °F 66.9 °F 51% 30.06 in 10.0 mi South 11.5 mph - N/A   Mostly Cloudy
3:54 PM 87.1 °F 91.3 °F 69.1 °F 55% 30.05 in 10.0 mi South 12.7 mph - N/A   Mostly Cloudy
4:54 PM 87.1 °F 90.6 °F 68.0 °F 53% 30.03 in 10.0 mi SSW 13.8 mph - N/A   Scattered Clouds
5:54 PM 87.1 °F 90.6 °F 68.0 °F 53% 30.02 in 10.0 mi SSW 12.7 mph - N/A   Scattered Clouds
6:54 PM 84.0 °F 87.8 °F 69.1 °F 61% 30.02 in 10.0 mi South 9.2 mph - N/A   Partly Cloudy
7:54 PM 82.9 °F 86.5 °F 69.1 °F 63% 30.02 in 10.0 mi South 10.4 mph - N/A   Scattered Clouds
8:54 PM 82.0 °F 85.5 °F 69.1 °F 65% 30.03 in 10.0 mi South 11.5 mph - N/A   Clear
9:54 PM 80.1 °F 82.9 °F 69.1 °F 69% 30.07 in 10.0 mi South 10.4 mph - N/A   Clear
10:54 PM 79.0 °F - 64.9 °F 62% 30.07 in 10.0 mi South 8.1 mph - N/A   Scattered Clouds
11:54 PM 78.1 °F - 66.9 °F 68% 30.07 in 10.0 mi South 11.5 mph - N/A   Partly Cloudy